| time (UTC) | temp F | wind direction | speed MPH | gust MPH | rain 1hr in | rain 24hr in | rain mn in | humidity % | barometer mb |
| 20260505022504 | 47 | 331 | 1.0 | 2.0 | 0.00 | 0.03 | 0.03 | 37 | 1015.2 |
| 20260505022008 | 47 | 296 | 1.0 | 2.0 | 0.00 | 0.03 | 0.03 | 36 | 1015.2 |
| 20260505021520 | 48 | 290 | 0.0 | 2.0 | 0.00 | 0.03 | 0.03 | 35 | 1015.2 |
| 20260505021006 | 48 | 290 | 0.0 | 2.0 | 0.00 | 0.03 | 0.03 | 35 | 1015.0 |
| 20260505020506 | 49 | 285 | 0.0 | 2.0 | 0.00 | 0.03 | 0.03 | 33 | 1015.2 |
| 20260505020024 | 49 | 285 | 0.0 | 0.0 | 0.00 | 0.03 | 0.03 | 33 | 1015.2 |
| 20260505015510 | 49 | 285 | 0.0 | 2.0 | 0.00 | 0.03 | 0.03 | 33 | 1014.9 |
| 20260505015017 | 49 | 285 | 0.0 | 4.0 | 0.00 | 0.03 | 0.03 | 33 | 1014.8 |
| 20260505014508 | 50 | 285 | 0.0 | 4.0 | 0.00 | 0.03 | 0.03 | 32 | 1015.0 |
| 20260505014005 | 50 | 265 | 1.0 | 6.0 | 0.00 | 0.03 | 0.03 | 32 | 1015.2 |
| 20260505013505 | 50 | 269 | 3.0 | 6.0 | 0.00 | 0.03 | 0.03 | 32 | 1015.1 |
| 20260505013012 | 50 | 275 | 3.0 | 7.0 | 0.00 | 0.03 | 0.03 | 32 | 1015.1 |
| 20260505012506 | 50 | 261 | 2.0 | 9.0 | 0.00 | 0.03 | 0.03 | 32 | 1015.1 |
| 20260505012004 | 51 | 279 | 3.0 | 10.0 | 0.00 | 0.03 | 0.03 | 32 | 1015.1 |
| 20260505011517 | 51 | 267 | 5.0 | 10.0 | 0.00 | 0.03 | 0.03 | 31 | 1015.0 |
| 20260505011008 | 51 | 277 | 3.0 | 11.0 | 0.00 | 0.03 | 0.03 | 31 | 1015.0 |
| 20260505010507 | 51 | 263 | 8.0 | 11.0 | 0.00 | 0.03 | 0.03 | 30 | 1015.2 |
| 20260505010023 | 51 | 309 | 3.0 | 10.0 | 0.00 | 0.03 | 0.03 | 30 | 1015.2 |
| 20260505005506 | 51 | 268 | 3.0 | 9.0 | 0.00 | 0.03 | 0.03 | 30 | 1015.2 |
| 20260505005008 | 52 | 287 | 3.0 | 10.0 | 0.00 | 0.03 | 0.03 | 30 | 1015.1 |
| 20260505004525 | 52 | 264 | 5.0 | 11.0 | 0.00 | 0.03 | 0.03 | 29 | 1015.1 |
| 20260505004010 | 52 | 284 | 4.0 | 11.0 | 0.00 | 0.03 | 0.03 | 29 | 1015.1 |
| 20260505003514 | 52 | 257 | 4.0 | 11.0 | 0.00 | 0.03 | 0.03 | 29 | 1015.1 |
| 20260505003011 | 52 | 309 | 5.0 | 13.0 | 0.00 | 0.03 | 0.03 | 29 | 1015.2 |
| 20260505002504 | 52 | 259 | 6.0 | 13.0 | 0.00 | 0.03 | 0.03 | 29 | 1015.4 |
| 20260505002006 | 52 | 268 | 8.0 | 12.0 | 0.00 | 0.03 | 0.03 | 29 | 1015.5 |
| 20260505001514 | 53 | 271 | 5.0 | 12.0 | 0.00 | 0.03 | 0.03 | 29 | 1015.4 |
| 20260505001005 | 53 | 293 | 5.0 | 12.0 | 0.00 | 0.03 | 0.03 | 28 | 1015.4 |
| 20260505000506 | 53 | 301 | 5.0 | 12.0 | 0.00 | 0.03 | 0.03 | 29 | 1015.4 |
| 20260505000020 | 53 | 275 | 4.0 | 13.0 | 0.00 | 0.03 | 0.03 | 28 | 1015.6 |
| 20260504235507 | 53 | 263 | 9.0 | 13.0 | 0.00 | 0.03 | 0.03 | 27 | 1015.6 |
| 20260504235007 | 53 | 295 | 7.0 | 17.0 | 0.00 | 0.03 | 0.03 | 26 | 1015.6 |
| 20260504234525 | 53 | 254 | 8.0 | 17.0 | 0.00 | 0.03 | 0.03 | 26 | 1015.6 |
| 20260504234008 | 53 | 272 | 7.0 | 15.0 | 0.00 | 0.03 | 0.03 | 26 | 1015.8 |
| 20260504233506 | 53 | 278 | 7.0 | 18.0 | 0.00 | 0.03 | 0.03 | 28 | 1015.7 |
| 20260504233028 | 53 | 279 | 8.0 | 18.0 | 0.00 | 0.03 | 0.03 | 28 | 1015.7 |
| 20260504232510 | 53 | 275 | 8.0 | 18.0 | 0.00 | 0.03 | 0.03 | 29 | 1015.8 |
| 20260504232003 | 53 | 222 | 11.0 | 18.0 | 0.00 | 0.03 | 0.03 | 30 | 1015.9 |
| 20260504231513 | 53 | 284 | 6.0 | 16.0 | 0.00 | 0.03 | 0.03 | 31 | 1015.8 |
| 20260504231004 | 53 | 261 | 10.0 | 14.0 | 0.00 | 0.03 | 0.03 | 31 | 1015.9 |
| 20260504230504 | 54 | 267 | 9.0 | 16.0 | 0.00 | 0.03 | 0.03 | 31 | 1016.0 |
| 20260504230018 | 53 | 281 | 8.0 | 16.0 | 0.00 | 0.03 | 0.03 | 30 | 1015.9 |
| 20260504225509 | 53 | 258 | 7.0 | 12.0 | 0.00 | 0.03 | 0.03 | 31 | 1016.0 |
| 20260504225010 | 53 | 238 | 9.0 | 17.0 | 0.00 | 0.03 | 0.03 | 30 | 1016.0 |
| 20260504224523 | 53 | 272 | 9.0 | 17.0 | 0.00 | 0.03 | 0.03 | 29 | 1016.0 |
| 20260504224007 | 53 | 275 | 8.0 | 17.0 | 0.00 | 0.03 | 0.03 | 28 | 1016.0 |
| 20260504223508 | 53 | 252 | 8.0 | 13.0 | 0.00 | 0.03 | 0.03 | 30 | 1015.8 |
| 20260504223026 | 54 | 298 | 4.0 | 11.0 | 0.00 | 0.03 | 0.03 | 30 | 1015.8 |
| 20260504222507 | 54 | 332 | 6.0 | 12.0 | 0.00 | 0.03 | 0.03 | 30 | 1015.8 |
| 20260504222014 | 54 | 298 | 5.0 | 12.0 | 0.00 | 0.03 | 0.03 | 32 | 1015.8 |
| 20260504221528 | 54 | 238 | 7.0 | 15.0 | 0.00 | 0.03 | 0.03 | 31 | 1016.0 |
| 20260504221011 | 54 | 250 | 10.0 | 15.0 | 0.00 | 0.03 | 0.03 | 29 | 1016.2 |
| 20260504220504 | 54 | 274 | 6.0 | 15.0 | 0.00 | 0.03 | 0.03 | 29 | 1016.0 |
| 20260504220021 | 54 | 257 | 8.0 | 16.0 | 0.00 | 0.03 | 0.03 | 29 | 1015.9 |
| 20260504215504 | 54 | 330 | 8.0 | 16.0 | 0.00 | 0.03 | 0.03 | 31 | 1016.1 |
| 20260504215006 | 54 | 252 | 6.0 | 15.0 | 0.00 | 0.03 | 0.03 | 31 | 1016.1 |
| 20260504214519 | 54 | 242 | 9.0 | 18.0 | 0.00 | 0.03 | 0.03 | 31 | 1016.1 |
| 20260504214008 | 54 | 254 | 11.0 | 18.0 | 0.00 | 0.03 | 0.03 | 33 | 1016.1 |
| 20260504213510 | 54 | 219 | 10.0 | 17.0 | 0.00 | 0.03 | 0.03 | 33 | 1016.3 |
| 20260504213023 | 54 | 241 | 9.0 | 18.0 | 0.00 | 0.03 | 0.03 | 33 | 1016.4 |
| 20260504212511 | 54 | 284 | 7.0 | 20.0 | 0.00 | 0.03 | 0.03 | 34 | 1016.5 |
| 20260504212002 | 54 | 226 | 12.0 | 20.0 | 0.00 | 0.03 | 0.03 | 32 | 1016.5 |
| 20260504211511 | 54 | 259 | 8.0 | 14.0 | 0.00 | 0.03 | 0.03 | 31 | 1016.4 |
| 20260504211003 | 54 | 311 | 8.0 | 14.0 | 0.00 | 0.03 | 0.03 | 35 | 1016.6 |
| 20260504210505 | 55 | 254 | 7.0 | 15.0 | 0.00 | 0.03 | 0.03 | 35 | 1016.6 |
| 20260504210012 | 55 | 275 | 6.0 | 16.0 | 0.00 | 0.03 | 0.03 | 38 | 1016.6 |
| 20260504205506 | 54 | 239 | 11.0 | 16.0 | 0.00 | 0.03 | 0.03 | 38 | 1016.7 |
| 20260504205007 | 54 | 261 | 6.0 | 16.0 | 0.00 | 0.03 | 0.03 | 39 | 1016.5 |
| 20260504204520 | 54 | 252 | 9.0 | 16.0 | 0.00 | 0.03 | 0.03 | 38 | 1016.7 |
| 20260504204007 | 53 | 258 | 5.0 | 12.0 | 0.00 | 0.03 | 0.03 | 40 | 1016.8 |
| 20260504203508 | 53 | 332 | 8.0 | 18.0 | 0.00 | 0.03 | 0.03 | 41 | 1017.0 |
| 20260504203024 | 53 | 300 | 10.0 | 18.0 | 0.00 | 0.03 | 0.03 | 40 | 1017.0 |
| 20260504202507 | 54 | 271 | 7.0 | 15.0 | 0.00 | 0.03 | 0.03 | 39 | 1017.0 |
| 20260504202011 | 54 | 223 | 9.0 | 16.0 | 0.00 | 0.03 | 0.03 | 39 | 1017.2 |
| 20260504201525 | 53 | 266 | 10.0 | 16.0 | 0.00 | 0.03 | 0.03 | 41 | 1017.2 |
| 20260504201003 | 53 | 234 | 8.0 | 12.0 | 0.00 | 0.03 | 0.03 | 42 | 1017.1 |
| 20260504200504 | 53 | 279 | 5.0 | 12.0 | 0.00 | 0.03 | 0.03 | 44 | 1017.1 |
| 20260504200021 | 53 | 263 | 5.0 | 11.0 | 0.00 | 0.03 | 0.03 | 44 | 1017.1 |
| 20260504195502 | 53 | 252 | 5.0 | 12.0 | 0.00 | 0.03 | 0.03 | 46 | 1017.2 |
| 20260504195008 | 52 | 271 | 5.0 | 12.0 | 0.00 | 0.03 | 0.03 | 44 | 1017.3 |
| 20260504194520 | 52 | 312 | 5.0 | 10.0 | 0.00 | 0.03 | 0.03 | 46 | 1017.3 |
| 20260504194009 | 52 | 239 | 6.0 | 16.0 | 0.00 | 0.03 | 0.03 | 47 | 1017.2 |
| 20260504193506 | 52 | 253 | 8.0 | 16.0 | 0.00 | 0.03 | 0.03 | 46 | 1017.3 |
| 20260504193020 | 52 | 253 | 8.0 | 13.0 | 0.00 | 0.03 | 0.03 | 46 | 1017.2 |
| 20260504192506 | 51 | 323 | 5.0 | 11.0 | 0.00 | 0.03 | 0.03 | 47 | 1017.2 |
| 20260504192010 | 51 | 314 | 6.0 | 11.0 | 0.00 | 0.03 | 0.03 | 45 | 1017.3 |
| 20260504191537 | 52 | 277 | 5.0 | 12.0 | 0.00 | 0.03 | 0.03 | 45 | 1017.3 |
| 20260504191008 | 52 | 273 | 8.0 | 13.0 | 0.00 | 0.03 | 0.03 | 45 | 1017.3 |
| 20260504190507 | 52 | 287 | 5.0 | 13.0 | 0.00 | 0.03 | 0.03 | 46 | 1017.5 |
| 20260504190026 | 52 | 216 | 6.0 | 11.0 | 0.00 | 0.03 | 0.03 | 46 | 1017.6 |
| 20260504185506 | 52 | 262 | 4.0 | 11.0 | 0.00 | 0.03 | 0.03 | 46 | 1017.5 |
| 20260504185004 | 52 | 265 | 3.0 | 11.0 | 0.00 | 0.03 | 0.03 | 46 | 1017.5 |
| 20260504184514 | 52 | 250 | 7.0 | 11.0 | 0.00 | 0.03 | 0.03 | 46 | 1017.6 |
| 20260504184004 | 51 | 200 | 6.0 | 12.0 | 0.00 | 0.03 | 0.03 | 47 | 1017.6 |
| 20260504183507 | 51 | 248 | 5.0 | 12.0 | 0.00 | 0.03 | 0.03 | 47 | 1017.6 |
| 20260504183034 | 51 | 270 | 6.0 | 11.0 | 0.00 | 0.03 | 0.03 | 47 | 1017.6 |
| 20260504182506 | 51 | 248 | 4.0 | 10.0 | 0.00 | 0.03 | 0.03 | 49 | 1017.8 |
| 20260504182010 | 50 | 257 | 5.0 | 10.0 | 0.00 | 0.03 | 0.03 | 48 | 1017.7 |
| 20260504181526 | 50 | 276 | 4.0 | 13.0 | 0.00 | 0.03 | 0.03 | 51 | 1017.8 |
| 20260504181007 | 50 | 263 | 7.0 | 13.0 | 0.00 | 0.03 | 0.03 | 49 | 1017.9 |
| 20260504180515 | 50 | 254 | 7.0 | 10.0 | 0.00 | 0.03 | 0.03 | 51 | 1018.0 |
| 20260504180026 | 50 | 256 | 4.0 | 12.0 | 0.00 | 0.03 | 0.03 | 50 | 1018.1 |
| 20260504175507 | 50 | 262 | 8.0 | 12.0 | 0.00 | 0.03 | 0.03 | 51 | 1018.0 |
| 20260504175009 | 50 | 258 | 6.0 | 12.0 | 0.00 | 0.03 | 0.03 | 51 | 1017.9 |
| 20260504174526 | 50 | 223 | 5.0 | 9.0 | 0.00 | 0.03 | 0.03 | 53 | 1017.9 |
| 20260504174004 | 50 | 212 | 4.0 | 9.0 | 0.00 | 0.03 | 0.03 | 53 | 1017.9 |
| 20260504173503 | 50 | 249 | 4.0 | 9.0 | 0.00 | 0.03 | 0.03 | 54 | 1017.9 |
| 20260504173015 | 50 | 247 | 4.0 | 14.0 | 0.00 | 0.03 | 0.03 | 53 | 1018.0 |
| 20260504172509 | 50 | 271 | 9.0 | 14.0 | 0.00 | 0.03 | 0.03 | 53 | 1018.1 |
| 20260504172009 | 50 | 255 | 5.0 | 8.0 | 0.00 | 0.03 | 0.03 | 54 | 1018.2 |
| 20260504171520 | 50 | 184 | 1.0 | 7.0 | 0.00 | 0.03 | 0.03 | 54 | 1018.1 |
| 20260504171010 | 50 | 244 | 5.0 | 9.0 | 0.00 | 0.03 | 0.03 | 54 | 1018.0 |
| 20260504170515 | 50 | 235 | 4.0 | 9.0 | 0.00 | 0.03 | 0.03 | 54 | 1018.0 |
| 20260504151004 | 47 | 277 | 2.0 | 3.0 | 0.00 | 0.03 | 0.03 | 61 | 1018.5 |
| 20260504150509 | 46 | 192 | 1.0 | 5.0 | 0.00 | 0.03 | 0.03 | 60 | 1018.5 |
| 20260504141015 | 42 | 19 | 1.0 | 2.0 | 0.00 | 0.03 | 0.03 | 82 | 1018.8 |
| 20260504140510 | 41 | 5 | 1.0 | 2.0 | 0.00 | 0.03 | 0.03 | 81 | 1018.7 |
| 20260504130513 | 39 | 61 | 1.0 | 1.0 | 0.00 | 0.03 | 0.03 | 79 | 1018.3 |
| 20260504110503 | 38 | 53 | 0.0 | 1.0 | 0.00 | 0.03 | 0.03 | 80 | 1017.9 |
| 20260504100509 | 39 | 352 | 1.0 | 4.0 | 0.00 | 0.03 | 0.03 | 80 | 1017.9 |
| 20260504082003 | 43 | 279 | 3.0 | 14.0 | 0.00 | 0.00 | 0.00 | 65 | 1018.5 |
| 20260504081523 | 44 | 296 | 6.0 | 13.0 | 0.00 | 0.00 | 0.00 | 65 | 1018.5 |
| 20260504081007 | 44 | 80 | 0.0 | 2.0 | 0.00 | 0.00 | 0.00 | 60 | 1017.7 |
| 20260504080508 | 44 | 80 | 0.0 | 1.0 | 0.00 | 0.00 | 0.00 | 61 | 1017.7 |
| 20260504050510 | 44 | 342 | 2.0 | 9.0 | 0.00 | 0.00 | 0.00 | 64 | 1019.7 |
| 20260504050014 | 44 | 345 | 3.0 | 10.0 | 0.00 | 0.00 | 0.00 | 64 | 1019.9 |
| 20260504045505 | 45 | 5 | 6.0 | 10.0 | 0.00 | 0.00 | 0.00 | 63 | 1020.1 |
| 20260504045008 | 46 | 312 | 2.0 | 16.0 | 0.00 | 0.00 | 0.00 | 62 | 1020.1 |
| 20260504044527 | 47 | 316 | 6.0 | 21.0 | 0.00 | 0.00 | 0.00 | 59 | 1020.3 |
| 20260504044009 | 48 | 301 | 11.0 | 21.0 | 0.00 | 0.00 | 0.00 | 54 | 1020.6 |
| 20260504043505 | 49 | 297 | 7.0 | 19.0 | 0.00 | 0.00 | 0.00 | 46 | 1020.3 |
| 20260504043026 | 50 | 231 | 10.0 | 19.0 | 0.00 | 0.00 | 0.00 | 45 | 1020.3 |
| 20260504042508 | 50 | 301 | 8.0 | 18.0 | 0.00 | 0.00 | 0.00 | 44 | 1020.0 |
| 20260504042009 | 50 | 312 | 7.0 | 16.0 | 0.00 | 0.00 | 0.00 | 41 | 1019.6 |
| 20260504041528 | 50 | 331 | 4.0 | 9.0 | 0.00 | 0.00 | 0.00 | 40 | 1019.4 |
| 20260504041008 | 51 | 346 | 3.0 | 8.0 | 0.00 | 0.00 | 0.00 | 40 | 1019.2 |
| 20260504040506 | 51 | 330 | 2.0 | 11.0 | 0.00 | 0.00 | 0.00 | 39 | 1019.2 |
| 20260504040026 | 51 | 325 | 3.0 | 15.0 | 0.00 | 0.00 | 0.00 | 39 | 1019.1 |
| 20260504035510 | 51 | 360 | 3.0 | 15.0 | 0.00 | 0.00 | 0.00 | 39 | 1018.9 |
| 20260504035013 | 51 | 334 | 8.0 | 14.0 | 0.00 | 0.00 | 0.00 | 39 | 1018.9 |
| 20260504034515 | 50 | 5 | 9.0 | 14.0 | 0.00 | 0.00 | 0.00 | 39 | 1018.8 |
| 20260504034006 | 50 | 15 | 6.0 | 10.0 | 0.00 | 0.00 | 0.00 | 39 | 1019.1 |
| 20260504033507 | 50 | 352 | 4.0 | 7.0 | 0.00 | 0.00 | 0.00 | 40 | 1019.0 |
| 20260504033022 | 50 | 330 | 3.0 | 6.0 | 0.00 | 0.00 | 0.00 | 40 | 1019.0 |
| 20260504032503 | 49 | 352 | 4.0 | 6.0 | 0.00 | 0.00 | 0.00 | 40 | 1018.9 |
| 20260504032004 | 49 | 323 | 4.0 | 7.0 | 0.00 | 0.00 | 0.00 | 41 | 1018.9 |
| 20260504031505 | 48 | 352 | 4.0 | 10.0 | 0.00 | 0.00 | 0.00 | 41 | 1019.1 |
| 20260504031003 | 48 | 229 | 3.0 | 10.0 | 0.00 | 0.00 | 0.00 | 41 | 1019.3 |
| 20260504030503 | 47 | 254 | 3.0 | 8.0 | 0.00 | 0.00 | 0.00 | 43 | 1019.4 |
| 20260504030025 | 48 | 351 | 0.0 | 3.0 | 0.00 | 0.00 | 0.00 | 42 | 1019.1 |
| 20260504025503 | 48 | 348 | 2.0 | 3.0 | 0.00 | 0.00 | 0.00 | 42 | 1018.8 |
| 20260504025003 | 48 | 352 | 2.0 | 2.0 | 0.00 | 0.00 | 0.00 | 41 | 1018.8 |
| 20260504024508 | 49 | 5 | 1.0 | 2.0 | 0.00 | 0.00 | 0.00 | 38 | 1018.6 |
| 20260504024003 | 49 | 9 | 0.0 | 2.0 | 0.00 | 0.00 | 0.00 | 38 | 1018.6 |
| 20260504023506 | 50 | 5 | 1.0 | 2.0 | 0.00 | 0.00 | 0.00 | 36 | 1018.6 |
| 20260504023008 | 50 | 5 | 1.0 | 2.0 | 0.00 | 0.00 | 0.00 | 34 | 1018.5 |